Helicity
48 28 22 37 45 47 71 79 121 106 93 75 75 87 89 85 94 104 99 97 92 95 98 94 105 105 95 92 103 118 141 124
102 98 105 109 75 75 122 149 136 121 109 110 116 131 119 118 132 141 114 125 96 98 108 103 102 112 105 97 103 112 122 147
169 159 142 123 109 123 128 147 139 127 125 122 122 135 145 144 146 140 136 127 117 128 114 99 90 95 92 95 94 121 148 159
146 125 111 103 119 130 151 169 151 151 138 134 147 141 134 160 158 137 139 116 128 108 91 95 87 79 96 101 117 120 149 176
113 95 99 136 160 169 163 163 153 149 158 129 130 143 144 150 139 110 115 102 100 62 60 73 79 93 98 109 125 149 166 182
107 103 130 155 170 166 157 138 150 129 102 112 108 101 99 112 137 142 104 99 76 53 52 52 62 96 123 136 156 156 174 202
95 101 112 140 136 128 114 108 102 80 89 57 31 3 84 137 146 124 130 103 57 58 59 53 100 148 206 242 261 324 331 397
111 111 140 173 165 148 136 137 90 97 35 36 134 163 157 162 160 149 121 99 88 36 108 159 191 220 228 227 248 260 289 300
115 151 151 152 125 110 96 63 94 134 153 149 158 186 187 174 159 120 88 57 11 64 58 123 171 179 179 200 304 281 196 180
118 129 128 85 61 71 117 157 157 157 183 211 189 180 158 121 80 38 -11 -1 45 85 150 195 246 261 252 252 207 165 156 159
128 134 103 66 85 105 128 143 148 143 159 190 168 148 122 72 4 17 62 94 98 113 203 209 220 288 193 109 69 39 36 35
137 120 86 53 66 106 129 122 136 173 166 131 101 81 73 79 94 104 116 119 134 150 159 173 196 127 30 -45 -54 36 98 103
141 127 102 85 108 97 129 168 157 138 102 91 114 98 92 109 120 122 121 111 102 133 176 185 103 43 20 107 103 81 78 75
165 132 108 109 119 135 137 117 104 89 95 117 126 113 96 115 107 84 50 80 98 108 114 78 47 63 90 104 109 105 93 85
161 118 144 110 85 64 68 90 110 98 84 118 149 135 130 116 113 85 74 80 72 69 80 83 94 70 60 49 45 69 85 93
167 141 113 72 42 55 95 103 104 104 90 107 144 129 116 117 98 83 101 111 95 87 79 73 65 65 123 102 98 91 85 74
154 113 70 78 23 113 117 80 86 95 112 130 124 129 133 128 93 83 100 76 73 67 68 65 70 89 179 127 105 82 67 59
113 52 31 63 133 110 91 80 77 98 111 129 158 156 138 117 95 91 73 68 67 65 69 86 88 83 166 102 88 71 68 56
90 80 116 85 75 85 88 81 102 109 111 125 158 160 130 106 95 68 63 62 62 72 86 86 76 82 128 90 70 53 64 50
Wind_Speed
11 21 26 24 24 21 16 17 24 30 32 35 37 39 42 43 45 49 54 56 58 57 58 59 58 58 57 56 56 57 57 60
22 28 30 28 27 24 24 27 32 33 37 41 42 46 48 49 53 58 62 64 66 68 69 70 68 66 65 64 65 65 65 63
26 30 33 34 33 31 31 33 37 38 41 45 48 53 54 58 57 65 66 73 75 75 75 75 75 75 73 71 70 73 71 65
29 32 36 36 37 37 37 38 40 45 47 49 53 53 56 60 68 70 74 77 78 78 78 79 79 77 79 78 75 76 82 75
33 35 38 38 39 39 40 42 44 49 53 56 61 64 67 68 71 75 82 81 82 82 82 81 80 79 80 80 79 79 79 85
36 38 38 39 40 42 44 47 51 54 56 61 66 68 70 73 78 83 84 83 84 83 82 83 82 79 79 79 79 77 77 79
38 38 39 41 42 45 48 53 56 59 62 62 66 72 78 82 86 89 87 90 88 87 85 81 77 76 75 73 71 71 70 70
41 40 41 46 50 53 56 60 62 61 62 66 71 76 80 84 88 91 97 95 91 89 85 77 72 69 66 64 65 65 64 65
44 46 48 51 54 56 58 61 65 66 70 73 74 78 80 85 88 92 92 91 89 84 73 67 64 62 63 63 63 62 61 61
50 52 53 56 56 57 62 67 70 72 74 75 76 78 82 85 88 87 85 83 78 69 65 66 63 61 62 65 65 66 64 61
57 59 61 61 60 58 64 70 72 69 71 71 74 78 81 83 84 85 81 75 68 62 62 59 60 64 67 64 61 55 50 49
65 64 62 60 57 64 72 72 70 70 70 74 79 80 80 80 80 78 74 69 66 60 58 60 65 66 63 56 52 50 50 53
63 63 63 60 64 70 71 72 72 74 76 79 80 78 77 78 76 72 71 68 62 62 62 64 66 62 59 57 55 53 55 60
67 69 66 67 71 73 71 71 73 76 78 80 77 76 76 75 74 70 66 64 64 63 62 61 60 60 60 56 54 58 64 67
69 69 70 72 69 68 71 72 76 79 78 82 82 80 75 73 71 70 68 65 63 60 60 62 63 63 62 61 65 67 70 70
74 74 73 72 71 73 73 78 78 74 76 83 80 73 70 70 71 69 68 66 64 63 62 61 60 61 58 65 67 68 70 72
75 72 68 70 74 74 76 80 80 73 82 78 71 71 72 70 67 67 67 66 63 61 61 62 64 63 61 69 72 74 75 76
69 67 70 73 74 73 78 84 80 79 78 70 69 70 69 67 67 67 65 64 63 64 64 65 66 66 66 73 75 75 76 75
70 71 75 74 69 75 79 82 80 77 76 68 65 66 63 65 64 63 63 64 65 65 65 66 67 66 68 71 76 73 72 73
Wind_Direction
17 353 349 355 359 7 18 10 355 350 350 348 348 349 349 348 346 345 343 341 339 337 334 332 331 327 324 321 317 315 312 312
3 2 6 9 10 8 2 353 348 348 345 343 342 342 341 341 340 341 339 337 335 333 330 327 326 323 321 318 314 310 308 305
20 15 8 5 3 0 356 350 347 346 343 339 338 336 337 334 335 334 334 332 331 329 327 325 323 321 318 316 314 311 306 304
8 0 355 356 354 352 350 349 347 345 343 341 339 336 334 332 331 331 331 330 329 326 324 322 320 318 315 314 312 309 305 302
354 350 349 349 351 353 351 348 345 343 341 337 335 333 331 331 329 328 327 326 325 324 323 321 319 317 315 314 312 309 306 302
350 349 350 350 349 348 346 343 341 340 337 336 334 333 332 331 328 325 325 325 325 324 323 321 319 318 316 314 313 310 307 302
346 347 347 347 347 344 342 339 336 336 337 336 334 331 330 329 328 326 327 326 325 324 323 322 321 320 320 320 320 320 317 314
346 346 344 341 339 338 337 336 336 337 336 334 332 330 330 329 328 327 325 325 324 324 324 323 322 323 324 324 323 322 322 318
347 344 340 339 339 338 338 337 335 334 333 332 332 332 331 330 329 328 326 325 325 325 325 326 325 326 325 326 327 324 322 318
341 341 340 337 336 337 336 334 332 332 332 332 332 333 332 331 330 329 328 327 327 327 327 325 326 327 327 326 325 322 320 319
337 338 337 338 339 339 338 336 334 335 336 336 336 335 334 334 333 332 332 332 332 330 330 328 329 330 329 328 327 325 324 324
333 335 338 340 342 339 337 338 338 338 338 337 335 336 336 337 336 336 336 336 335 334 333 331 329 327 327 328 326 326 325 323
337 339 340 339 338 337 338 338 339 338 337 337 337 337 338 339 339 338 337 337 336 334 334 331 330 331 329 329 326 323 321 318
337 338 338 337 336 336 338 339 338 337 337 337 340 339 338 339 339 338 337 337 336 335 334 333 333 333 330 328 325 321 317 315
339 338 336 336 338 339 339 338 338 338 337 337 338 338 338 339 341 341 342 341 338 338 336 334 332 330 328 326 323 319 316 314
338 337 336 337 338 337 338 338 340 340 339 337 339 342 342 341 341 341 342 341 340 339 338 338 337 334 333 329 326 322 318 315
339 338 339 339 338 339 339 339 340 341 338 338 341 342 343 343 343 342 342 342 342 342 341 339 336 334 332 329 325 320 317 313
340 340 339 338 338 339 339 338 338 339 339 340 342 343 343 345 344 344 344 344 343 342 340 338 336 333 333 329 326 322 318 315
339 339 339 339 338 338 339 339 338 338 339 339 342 344 345 345 345 346 346 345 344 342 341 340 337 336 335 332 329 325 321 317